Location: Sevilla
(37.3933°N, 5.9839°W)
Time: 06:07:55
(UTC+02:00)

Transit 2A - Pass Details

Date: 27 June 2024
Orbit: 591 x 960 km, 66.7° (Epoch: 15 July)

Event Time Altitude Azimuth Distance (km) Brightness Sun altitude
Rises 03:07:47 0° 312° (NW) 3,615 9.9 -28.5°
Reaches altitude 10° 03:11:24 10° 292° (WNW) 2,688 8.9 -28.4°
Enters shadow 03:13:25 14° 274° (W) 2,380 8.4 -28.3°
Maximum altitude 03:14:56 16° 257° (WSW) 2,302 - -28.3°
Drops below altitude 10° 03:18:28 10° 223° (SW) 2,675 - -28.1°
Sets 03:22:04 0° 202° (SSW) 3,586 - -27.9°
